Skip Page Navigation
NASA JPL Caltech
NASA Logo - Jet Propulsion Laboratory + View the NASA Portal
+ Near-Earth Object (NEO) Program
Search JPL
JPL Home Earth Solar System Stars & Galaxies Technology
JPL Solar System Dynamics
BODIES ORBITS EPHEMERIDES TOOLS PHYSICAL DATA DISCOVERY FAQ SITE MAP
JPL Small-Body Database Browser
Search: [ help ]  
20073 Yumiko (1994 AN2)
Classification: Main-belt Asteroid          SPK-ID: 2020073
Ephemeris | Orbit Diagram | Orbital Elements | Physical Parameters | Discovery Circumstances | Close-Approach Data ]

[ show orbit diagram ]
Orbital Elements at Epoch 2457000.5 (2014-Dec-09.0) TDB
Reference: JPL 14 (heliocentric ecliptic J2000)
 Element Value Uncertainty (1-sigma)   Units 
e .06477488824017198 5.1606e-08  
a 2.300734335930847 1.1615e-08 AU
q 2.1517045264506 1.219e-07 AU
i 6.59055981997349 5.0061e-06 deg
node 305.4544927822759 4.5106e-05 deg
peri 271.6120212803916 5.9854e-05 deg
M 266.4785832660587 4.0838e-05 deg
tp 2457331.636240806689
(2015-Nov-05.13624081)
0.00014493 JED
period 1274.671095173262
3.49
9.6529e-06
2.643e-08
d
yr
n .2824257970257547 2.1388e-09 deg/d
Q 2.449764145411094 1.2368e-08 AU
  Orbit Determination Parameters
   # obs. used (total)      1009  
   data-arc span      7793 days (21.34 yr)  
   first obs. used      1993-11-21  
   last obs. used      2015-03-24  
   planetary ephem.      DE431  
   SB-pert. ephem.      SB431-BIG16  
   condition code      0  
   fit RMS      .52614  
   data source      ORB  
   producer      Otto Matic  
   solution date      2015-Apr-07 17:05:26  

Additional Information
 Earth MOID = 1.15773 AU 
 T_jup = 3.580 
[ show covariance matrix ]

Ephemeris | Orbit Diagram | Orbital Elements | Physical Parameters | Discovery Circumstances | Close-Approach Data ]

Physical Parameter Table
Parameter Symbol Value Units Sigma Reference Notes
absolute magnitude H 14.8 mag n/a MPO267783  

20073 Yumiko           Discovered 1994 Jan. 9 by T. Kobayashi and H. Fujii at Oizumi.
Yumiko Fujii (b. 1968) is the wife of the second discoverer.
NOTE: some special characters may not display properly (any characters within {} are an attempt to place the proper accent above a character)
Reference: 20050407/MPCPages.arcLast Updated: 2005-04-15

[ show close-approach data ]
Alternate Designations
 1994 AN2 = 1998 FN111 
Ephemeris | Orbit Diagram | Orbital Elements | Physical Parameters | Discovery Circumstances | Close-Approach Data ]
ABOUT SSD CREDITS/AWARDS PRIVACY/COPYRIGHT GLOSSARY LINKS
FirstGov 2015-Apr-26 11:34 UT
(server date/time)  
NASA Home Page
Site Manager:   Ryan S. Park
Webmaster  Alan B. Chamberlin